sat.trackr.live / text

‹ back to catalog

STARLINK-32325

NORAD 61588 · 2024-187Q

PAYLOAD ACTIVE UNKNOWN

§ Identity

Operator
Country
US
Launch date
2024-10-18
Launch site
AFETR
Launch vehicle
Mass (kg)
RCS (m²)

Purposes: comms

External: N2YO · Heavens-Above · Gunter

§ Orbital elements

Epoch: 2026-05-25T04:11:30.581664Z

Period
93.85 min
Inclination
53.1603°
Eccentricity
0.0001253
Mean motion
15.34387711 rev/d
Perigee alt
461.9 km
Apogee alt
463.6 km
Semi-major
6,840.9 km
B*
2.9871e-5
RAAN
69.0739°
Arg perigee
91.0267°
Mean anomaly
269.0879°
Rev number
9,080

§ Raw data

STARLINK-323251 61588U 24187Q   26145.17465951  .00000633  00000+0  29871-4 0  99982 61588  53.1603  69.0739 0001253  91.0267 269.0879 15.34387711 90806

JSON: /api/v1/satellites/61588 · /tle

For live sub-satellite position, see the globe view (requires WebGL).

§ Visibility from observer

Set your observer location to see the next 7 days of passes ≥ 10°. The values pass through the URL so the page stays shareable.

No JS? Fill the form by hand. The geolocation button needs JavaScript.